Preview of NWS' New Version of Forecast
This preview is not operational and should not be used for support decisions.

Regional Weather Roundup (RWR)

Issued by Gray - Portland, ME (GYX)

                            
000
ASUS41 KGYX 231005
RWRGYX
WEATHER ROUNDUP FOR MAINE AND NEW HAMPSHIRE
NATIONAL WEATHER SERVICE GRAY ME
600 AM EDT TUE JUL 23 2019

MEZ002-005-006-010-012-015-018-020-021-024-026-027-029-231100-
MAINE
  
CITY           SKY/WX    TMP DP  RH WIND       PRES   REMARKS
PORTLAND       RAIN      62  60  93 N6        29.84R                  
SANFORD        RAIN      61  61 100 VRB5      29.84R                  
BAR HARBOR     MOCLDY    60  59  96 NW3       29.82S                  
WISCASSET      CLOUDY    60  58  92 CALM      29.84R                  
ROCKLAND       LGT RAIN  60  59  96 CALM      29.81F                  
FRYEBURG       CLOUDY    61  58  90 CALM      29.85R                  
LEWISTONAUBURN LGT RAIN  60  58  92 CALM      29.85R                  
AUGUSTA        CLOUDY    58  57  97 NW6       29.85R                  
WATERVILLE     MOCLDY    59  58  96 N3        29.82R                  
BANGOR         CLOUDY    60  58  92 CALM      29.82S                  
GREENVILLE       N/A     57  52  83 CALM      29.84R                  
MILLINOCKET    FAIR      58  55  90 CALM      29.84S                  
HOULTON        FAIR      53  51  93 CALM      29.82S                  
PRESQUE ISLE   FAIR      52  51  97 CALM      29.85S                  
FRENCHVILLE    FAIR      53  48  83 CALM      29.83R                  
CARIBOU        FAIR      53  51  93 CALM      29.83S                  
$$

NHZ002-005-008-009-011-012-014-231100-
NEW HAMPSHIRE
  
CITY           SKY/WX    TMP DP  RH WIND       PRES   REMARKS
PORTSMOUTH     LGT RAIN  63  62  97 N7        29.79R FOG              
ROCHESTER      LGT RAIN  61  59  93 N3        29.82R FOG              
NASHUA         HVY RAIN  63  63 100 VRB3      29.83R FOG              
MANCHESTER     LGT RAIN  64  62  93 N3        29.81R FOG              
CONCORD        LGT RAIN  62  60  93 NE5       29.82R                  
LACONIA        LGT RAIN  62  60  93 E5        29.84R                  
PLYMOUTH       LGT RAIN  62  60  95 CALM      29.83R                  
BERLIN         LGT RAIN  58  56  93 CALM      29.87R                  
WHITEFIELD     LGT RAIN  59  57  93 CALM      29.86R                  
JAFFREY        LGT RAIN  62  60  93 CALM      29.84R FOG              
KEENE          RAIN      63  62  97 NE3       29.83R                  
LEBANON        RAIN      63  59  87 NE3       29.84R FOG              
MT WASHINGTON  SHOWER    45  45 100 N15         N/A  VSB 1/8          
$$

VTZ005-007-008-231100-
VERMONT
  
CITY           SKY/WX    TMP DP  RH WIND       PRES   REMARKS
ST JOHNSBURY     N/A     60  60 100 MISG      29.84R                  
MONTPELIER     LGT RAIN  60  60 100 CALM      29.90R                  
BURLINGTON     MOCLDY    63  59  87 E5        29.85R                  
$$

MAZ007-012-024-CTZ003-RIZ002-NYZ038-NYZ072-231100-
SOUTHERN NEW ENGLAND AND NY
  
CITY           SKY/WX    TMP DP  RH WIND       PRES   REMARKS
BOSTON         LGT RAIN  67  63  87 E17       29.78F                  
WORCESTER      HVY RAIN  61  61 100 N10G17    29.81R VSB 1            
NANTUCKET      FAIR      71  70  96 NW6       29.78R                  
PROVIDENCE     LGT RAIN  66  66 100 NE6       29.78R FOG              
HARTFORD       LGT RAIN  63  62  97 N8        29.79S FOG              
ALBANY         LGT RAIN  65  61  87 N7        29.84R                  
NEW YORK CITY  LGT RAIN  70  67  90 NE10      29.71S                  
$$

ANZ081-ANZ082-ANZ150-NHZ014-MEZ023>029-231100-
COASTAL MARINE OBSERVATIONS
  
STATION/POSITION TIME  TEMP    WIND        PRES    WAVE
                       AIR SEA DIR/SP/G            HT/PER
                 (UTC) (F)     (DEG/KT/KT) (MB)    (FT/S)
ISLE OF SHOALS   0900   63      50/ 17/ 19 1007.9F
JEFFREYS LEDGE   0938      67                N/A     4/ 5
CASHES LEDGE BUO 0850   58 59   40/ 16/ 17 1008.8    2/ 3
GEORGES BANK BUO 0940   67     220/ 14/ 16 1010.0R
$$

.............KEY..............
   WCI - WIND CHILL
   TC  - TEMPERATURE IN CELSIUS
   VSB - VISIBILITY IN MILES
   HX  - HEAT INDEX
   FAIR- INDICATES FEW OR NO CLOUDS BELOW 12,000 FT, WITH NO 
         SIGNIFICANT WEATHER AND/OR OBSTRUCTIONS TO VISIBILITY.